{"data":{"norad_id":68968,"epoch":"2026-05-25T04:00:03.998880Z","epoch_age_seconds":50691,"freshness":"FRESH","line1":"1 68968U 26099T   26145.16671295 -.02009230  00000+0 -20834-1 0  9993","line2":"2 68968  53.1591 269.9502 0000708  76.5424 275.5580 15.67262861  5011","mean_motion":15.67262861,"eccentricity":7.08e-5,"inclination_deg":53.1591,"raan_deg":269.9502,"arg_perigee_deg":76.5424,"mean_anomaly_deg":275.558,"bstar":-0.020834,"rev_number":501,"period_min":91.879928749234,"perigee_km":366.26109858028,"apogee_km":367.21617297031,"semimajor_km":6744.8756357753,"source":"CELESTRAK","updated_at":"2026-05-25T13:38:22.075645Z"}}